TimeEDT,TemperatureF,Dew PointF,Humidity,Sea Level PressureIn,VisibilityMPH,Wind Direction,Wind SpeedMPH,Gust SpeedMPH,PrecipitationIn,Events,Conditions,WindDirDegrees,DateUTC
12:15 AM,68.0,53.6,60,29.86,10.0,South,12.7,17.3,N/A,,Clear,190,2012-10-26 04:15:00
12:30 AM,68.0,53.6,60,29.87,10.0,South,12.7,-,N/A,,Clear,190,2012-10-26 04:30:00
12:51 AM,68.0,53.6,60,29.86,10.0,SSW,11.5,-,N/A,,Clear,200,2012-10-26 04:51:00
1:11 AM,69.8,53.6,56,29.86,10.0,SSW,13.8,18.4,N/A,,Scattered Clouds,200,2012-10-26 05:11:00
1:52 AM,69.8,53.6,56,29.86,10.0,SSW,11.5,-,N/A,,Clear,210,2012-10-26 05:52:00
2:12 AM,69.8,53.6,56,29.87,10.0,SSW,10.4,16.1,N/A,,Scattered Clouds,210,2012-10-26 06:12:00
2:32 AM,69.8,55.4,60,29.87,10.0,SSW,12.7,18.4,N/A,,Overcast,200,2012-10-26 06:32:00
2:52 AM,69.8,55.4,60,29.88,10.0,SW,11.5,19.6,N/A,,Mostly Cloudy,220,2012-10-26 06:52:00
3:12 AM,69.8,55.4,60,29.89,10.0,SW,11.5,17.3,N/A,,Scattered Clouds,230,2012-10-26 07:12:00
3:32 AM,68.0,55.4,64,29.90,10.0,WSW,12.7,17.3,N/A,,Clear,240,2012-10-26 07:32:00
3:52 AM,68.0,55.4,64,29.91,10.0,West,15.0,-,N/A,,Clear,260,2012-10-26 07:52:00
4:12 AM,60.8,55.4,82,29.94,10.0,WNW,18.4,26.5,N/A,,Scattered Clouds,290,2012-10-26 08:12:00
4:33 AM,55.4,51.8,88,29.97,10.0,WNW,15.0,19.6,N/A,,Scattered Clouds,290,2012-10-26 08:33:00
4:53 AM,55.4,50.0,82,29.97,10.0,WNW,10.4,19.6,N/A,,Mostly Cloudy,300,2012-10-26 08:53:00
5:13 AM,55.4,48.2,77,29.98,10.0,NW,10.4,20.7,N/A,,Overcast,310,2012-10-26 09:13:00
5:33 AM,55.4,46.4,72,29.99,10.0,WNW,15.0,23.0,N/A,,Overcast,300,2012-10-26 09:33:00
5:53 AM,53.6,44.6,72,30.01,10.0,WNW,12.7,17.3,N/A,,Overcast,300,2012-10-26 09:53:00
6:13 AM,53.6,44.6,72,30.03,10.0,WNW,12.7,20.7,N/A,,Overcast,300,2012-10-26 10:13:00
6:33 AM,51.8,44.6,76,30.04,10.0,NW,13.8,23.0,N/A,,Overcast,310,2012-10-26 10:33:00
6:53 AM,51.8,44.6,76,30.06,10.0,WNW,13.8,-,N/A,,Overcast,300,2012-10-26 10:53:00
7:13 AM,51.8,46.4,82,30.05,10.0,NW,11.5,17.3,N/A,,Overcast,310,2012-10-26 11:13:00
7:34 AM,51.8,44.6,76,30.07,10.0,NW,12.7,18.4,N/A,,Overcast,320,2012-10-26 11:34:00
7:54 AM,50.0,44.6,82,30.07,10.0,NNW,10.4,17.3,N/A,,Overcast,330,2012-10-26 11:54:00
8:14 AM,48.2,44.6,87,30.10,10.0,NW,11.5,18.4,N/A,Rain,Light Rain,310,2012-10-26 12:14:00
8:34 AM,48.2,44.6,87,30.12,5.0,WNW,9.2,-,N/A,Rain,Light Rain,300,2012-10-26 12:34:00
8:54 AM,46.4,44.6,93,30.13,5.0,NW,11.5,-,N/A,Rain,Rain,310,2012-10-26 12:54:00
9:54 AM,48.2,44.6,87,30.16,10.0,NW,9.2,-,N/A,Rain,Light Rain,320,2012-10-26 13:54:00
10:14 AM,48.2,44.6,87,30.15,10.0,North,9.2,-,N/A,Rain,Light Rain,360,2012-10-26 14:14:00
10:35 AM,48.2,44.6,87,30.16,10.0,NNW,6.9,-,N/A,Rain,Light Rain,340,2012-10-26 14:35:00
10:55 AM,48.2,44.6,87,30.17,10.0,North,5.8,-,N/A,,Overcast,350,2012-10-26 14:55:00
11:15 AM,48.2,44.6,87,30.18,10.0,NNW,8.1,-,N/A,Rain,Light Rain,330,2012-10-26 15:15:00
11:35 AM,48.2,44.6,87,30.19,10.0,NNW,6.9,-,N/A,Rain,Light Rain,330,2012-10-26 15:35:00
11:55 AM,48.2,44.6,87,30.19,10.0,NNW,8.1,-,N/A,,Overcast,340,2012-10-26 15:55:00
12:15 PM,48.2,42.8,82,30.19,10.0,NNW,10.4,-,N/A,,Overcast,340,2012-10-26 16:15:00
12:35 PM,50.0,42.8,76,30.19,10.0,NNW,10.4,-,N/A,,Overcast,330,2012-10-26 16:35:00
12:55 PM,50.0,42.8,76,30.19,10.0,NNW,9.2,-,N/A,,Overcast,340,2012-10-26 16:55:00
1:16 PM,50.0,42.8,76,30.18,10.0,NNW,9.2,-,N/A,,Overcast,330,2012-10-26 17:16:00
1:31 PM,50.0,42.8,76,30.18,10.0,North,10.4,17.3,N/A,,Overcast,360,2012-10-26 17:31:00
1:51 PM,50.0,44.6,82,30.19,10.0,NW,9.2,-,N/A,,Overcast,310,2012-10-26 17:51:00
2:11 PM,50.0,42.8,76,30.19,10.0,NW,9.2,-,N/A,,Overcast,310,2012-10-26 18:11:00
2:31 PM,50.0,42.8,76,30.20,10.0,North,9.2,-,N/A,,Overcast,350,2012-10-26 18:31:00
2:51 PM,50.0,41.0,71,30.19,10.0,NNW,10.4,-,N/A,,Overcast,330,2012-10-26 18:51:00
3:31 PM,50.0,41.0,71,30.18,10.0,NNW,8.1,-,N/A,,Mostly Cloudy,340,2012-10-26 19:31:00
3:51 PM,48.2,39.2,71,30.19,10.0,NW,9.2,-,N/A,,Scattered Clouds,320,2012-10-26 19:51:00
4:11 PM,48.2,41.0,76,30.19,10.0,NW,9.2,-,N/A,,Mostly Cloudy,320,2012-10-26 20:11:00
4:32 PM,48.2,39.2,71,30.18,10.0,North,5.8,-,N/A,,Scattered Clouds,350,2012-10-26 20:32:00
4:52 PM,48.2,39.2,71,30.19,10.0,NNW,4.6,-,N/A,,Mostly Cloudy,330,2012-10-26 20:52:00
5:12 PM,48.2,39.2,71,30.17,10.0,NNW,6.9,-,N/A,,Mostly Cloudy,340,2012-10-26 21:12:00
5:32 PM,48.2,39.2,71,30.17,10.0,North,6.9,-,N/A,,Overcast,350,2012-10-26 21:32:00
5:52 PM,48.2,39.2,71,30.17,10.0,North,5.8,-,N/A,,Overcast,350,2012-10-26 21:52:00
6:12 PM,48.2,37.4,66,30.17,10.0,North,5.8,-,N/A,,Overcast,350,2012-10-26 22:12:00
6:32 PM,48.2,39.2,71,30.18,10.0,North,3.5,-,N/A,,Mostly Cloudy,360,2012-10-26 22:32:00
6:52 PM,48.2,39.2,71,30.17,10.0,North,5.8,-,N/A,,Overcast,350,2012-10-26 22:52:00
7:12 PM,48.2,37.4,66,30.20,10.0,North,4.6,-,N/A,,Overcast,350,2012-10-26 23:12:00
7:33 PM,48.2,37.4,66,30.20,10.0,NNE,3.5,-,N/A,,Overcast,20,2012-10-26 23:33:00
7:53 PM,48.2,37.4,66,30.22,10.0,North,4.6,-,N/A,,Overcast,350,2012-10-26 23:53:00
8:13 PM,48.2,37.4,66,30.22,10.0,Calm,Calm,-,N/A,,Overcast,0,2012-10-27 00:13:00
8:33 PM,48.2,37.4,66,30.22,10.0,Calm,Calm,-,N/A,,Overcast,0,2012-10-27 00:33:00
8:53 PM,48.2,39.2,71,30.21,10.0,Calm,Calm,-,N/A,,Overcast,0,2012-10-27 00:53:00
9:13 PM,48.2,39.2,71,30.19,10.0,North,3.5,-,N/A,,Mostly Cloudy,350,2012-10-27 01:13:00
9:33 PM,46.4,39.2,76,30.19,10.0,NNW,3.5,-,N/A,,Scattered Clouds,340,2012-10-27 01:33:00
9:53 PM,48.2,37.4,66,30.19,10.0,NNW,3.5,-,N/A,,Mostly Cloudy,340,2012-10-27 01:53:00
10:13 PM,48.2,39.2,71,30.19,10.0,NNW,3.5,-,N/A,,Mostly Cloudy,340,2012-10-27 02:13:00
10:34 PM,46.4,39.2,76,30.19,10.0,North,6.9,-,N/A,,Overcast,350,2012-10-27 02:34:00
10:54 PM,46.4,37.4,71,30.19,10.0,North,6.9,-,N/A,,Mostly Cloudy,350,2012-10-27 02:54:00
11:14 PM,46.4,39.2,76,30.18,10.0,North,5.8,-,N/A,,Scattered Clouds,350,2012-10-27 03:14:00
11:34 PM,46.4,37.4,71,30.19,10.0,North,4.6,-,N/A,,Scattered Clouds,360,2012-10-27 03:34:00